Flight Track Log - Related Links

Times and Time Zones

All times are in EDT time to prevent confusion due to time zone crossing. See the XOJ552 flight status page for this flight to view local times or setup timezone preferences in your user account.

Time Position Orientation Groundspeed Altitude Reporting Facility
EDT Latitude Longitude Course Direction KTS MPH feet Rate Location/Type
Wed 08:21:29 PM 39.2944 -120.2481 194° South 279 321 13,000  Level Oakland Center
Wed 08:22:31 PM 39.1919 -120.2472 180° South 350 403 17,300 4,098 Climbing Oakland Center
Wed 08:23:32 PM 39.0917 -120.2275 171° South 361 415 21,400 3,049 Climbing Oakland Center
Wed 08:24:33 PM 38.9825 -120.2053 171° South 387 445 23,500 2,146 Climbing Oakland Center
Wed 08:25:00 PM 39.3069 -119.6500 180° South  Level FlightAware Approximate
Wed 08:25:35 PM 38.8592 -120.1797 171° South 437 503 25,800  Level Oakland Center
Wed 08:26:36 PM 38.7319 -120.1536 171° South 457 526 28,200 2,361 Climbing Oakland Center
Wed 08:27:37 PM 38.6006 -120.1267 171° South 470 541 30,600 2,293 Climbing Oakland Center
Wed 08:28:39 PM 38.4717 -120.0997 171° South 466 536 32,900 1,171 Climbing Oakland Center
Wed 08:29:40 PM 38.3322 -120.0728 171° South 492 566 33,000 738 Climbing Oakland Center
Wed 08:30:41 PM 38.1933 -120.0444 171° South 502 578 34,400 1,659 Climbing Oakland Center
Wed 08:31:43 PM 38.0572 -120.0164 171° South 497 572 36,400 2,293 Climbing Oakland Center
Wed 08:32:44 PM 37.9097 -119.9878 171° South 461 531 39,100 2,016 Climbing Oakland Center
Wed 08:33:45 PM 37.7878 -119.9631 171° South 446 513 40,500 934 Climbing Oakland Center
Wed 08:34:46 PM 37.6636 -119.9397 172° South 447 514 41,000 246 Climbing Oakland Center
Wed 08:35:47 PM 37.5269 -119.9178 173° South 492 566 41,000  Level Oakland Center
Wed 08:36:49 PM 37.3956 -119.8903 171° South 478 550 41,000  Level Oakland Center
Wed 08:37:50 PM 37.2644 -119.8642 171° South 474 545 41,000  Level Oakland Center
Wed 08:38:51 PM 37.1350 -119.8383 171° South 469 540 41,000 -49 Level Oakland Center
Wed 08:39:52 PM 37.0019 -119.8117 171° South 467 537 40,900  Descending Oakland Center
Wed 08:40:54 PM 36.8717 -119.7864 171° South 472 543 41,000 49 Climbing Oakland Center
Wed 08:41:55 PM 36.7433 -119.7600 171° South 468 539 41,000  Level Oakland Center
Wed 08:42:56 PM 36.6122 -119.7336 171° South 474 545 41,000 -443 Level Oakland Center
Wed 08:43:57 PM 36.4828 -119.7083 171° South 472 543 40,100 -1,171 Descending Oakland Center
Wed 08:44:59 PM 36.3536 -119.6831 171° South 468 539 38,600 -1,512 Descending Oakland Center
Wed 08:46:00 PM 36.2000 -119.6531 171° South 461 531 37,000 -787 Descending Oakland Center
Wed 08:47:01 PM 36.0769 -119.6300 171° South 448 516 37,000  Level Oakland Center
Wed 08:48:02 PM 35.9542 -119.6172 175° South 440 506 37,000 -146 Level Oakland Center
Wed 08:49:04 PM 35.8469 -119.6661 200° South 428 493 36,700 -976 Descending Oakland Center
Wed 08:50:05 PM 35.7794 -119.7756 233° Southwest 409 471 35,000 -1,770 Descending Oakland Center
Wed 08:51:06 PM 35.7153 -119.8911 236° Southwest 409 471 33,100 -1,918 Descending Oakland Center
Wed 08:52:07 PM 35.6539 -120.0094 237° Southwest 411 473 31,100 -1,869 Descending Oakland Center
Wed 08:53:08 PM 35.5694 -120.1039 222° Southwest 431 496 29,300 -1,805 Descending Oakland Center
Wed 08:54:10 PM 35.4533 -120.0689 166° South 440 506 27,400 -1,854 Descending Oakland Center
Wed 08:55:11 PM 35.3636 -119.9678 137° Southeast 434 499 25,500 -1,672 Descending Oakland Center
Wed 08:56:12 PM 35.2781 -119.8719 138° Southeast 419 482 24,000 -985 Descending Oakland Center
Wed 08:57:25 PM 35.1778 -119.7581 137° Southeast 410 472 23,300 -1,200 Descending Los Angeles Center
Wed 08:58:27 PM 35.0681 -119.6339 137° Southeast 444 511 21,300 -1,742 Descending Los Angeles Center
Wed 08:59:29 PM 34.9792 -119.5339 137° Southeast 437 503 19,700 -1,548 Descending Los Angeles Center
Wed 09:00:31 PM 34.8917 -119.4361 137° Southeast 429 494 18,100 -1,509 Descending Los Angeles Center
Wed 09:02:20 PM 34.7392 -119.2681 138° Southeast 410 472 15,400 -1,447 Descending Oakland Center
Wed 09:03:21 PM 34.6608 -119.1781 137° Southeast 394 453 14,000 -1,105 Descending Oakland Center
Wed 09:03:36 PM 34.6453 -119.1611 138° Southeast 389 448 14,000  Level Los Angeles Center

Login

Don't have an account? Register now (free) for customized features, flight alerts, and more!